Location: Essen
(51.4609°N, 7.0127°E)
Time: 02:54:17
(UTC+01:00)

ISS - Pass Details

Date: 12 November 2017
Orbit: 402 x 407 km, 51.6° (Epoch: 20 November)

Event Time Altitude Azimuth Distance (km) Brightness Sun altitude
Exits shadow 05:52:43 52° 249° (WSW) 505 -3.8 -17.4°
Maximum altitude 05:53:16 65° 197° (SSW) 447 -3.8 -17.3°
Drops below altitude 10° 05:56:30 10° 115° (ESE) 1,455 0.1 -16.8°
Sets 05:58:35 0° 113° (ESE) 2,312 1.6 -16.5°
